GPS BIIRM-4 (PRN 15)

Last updated on Sun Sep 06 2026 00:03:18 GMT+0000 (Coordinated Universal Time)

1 32260U 07047A 26248.49996170 .00000007 00000+0 00000+0 0 9993 2 32260 54.1589 76.7567 0168952 89.2510 272.7478 2.00551716138423
UTC large
Height (km)
Speed (km/s)
/
Latitude / Longitude
Inclination (degrees)
Orbital Period (minutes)
Azimuth
Elevation
Range (km)
Doppler Factor

Next 0 passes for location: London (51.5072 / 0.1276)

No passes found over London.